GEFSMA_con_cape1000_354.txt.gz
Probability
10 10 6 6 10 10 13 10 3 3 0 10 6 13 10 3 6 10 10 35 42 45 42 42 45 42 45 48 45 45 48 45 52 45 45 42 39 42 42 35 39 35 35
10 6 6 6 6 6 3 0 3 3 0 3 3 3 3 3 10 10 6 23 35 45 42 45 55 55 45 48 45 39 45 48 52 52 48 42 45 39 45 45 35 42 35
16 13 10 3 6 3 3 3 3 3 3 6 0 0 6 0 6 6 6 3 16 29 52 52 48 58 55 55 42 45 39 48 48 48 39 35 45 48 42 35 32 35 32
10 13 6 3 6 6 6 10 6 3 3 3 0 0 3 3 6 6 6 6 3 10 35 52 55 61 48 55 52 48 48 42 39 39 32 39 39 35 29 35 35 26 23
13 13 10 13 10 6 6 6 6 6 3 6 0 0 0 3 3 10 10 3 3 3 3 19 55 58 58 58 55 52 48 45 32 35 32 29 26 19 19 26 23 23 13
16 10 10 10 6 6 6 6 6 10 6 6 6 3 3 0 0 0 3 0 3 0 3 6 3 26 45 45 45 52 52 39 29 29 32 29 23 23 19 23 19 16 10
16 13 13 10 6 6 6 6 10 10 10 6 3 3 3 3 3 3 0 0 3 0 0 3 3 0 3 32 35 45 45 45 35 26 26 26 23 26 23 16 16 13 16
16 23 10 10 10 10 10 13 6 6 6 10 3 3 3 3 3 3 3 0 3 3 3 10 3 3 0 6 16 29 39 39 39 32 26 26 26 26 19 19 16 13 13
16 13 16 16 13 13 6 6 10 6 6 6 6 3 3 3 3 3 6 6 6 3 3 0 6 10 6 6 10 23 29 29 29 32 26 26 29 23 23 16 13 16 16
19 26 23 16 6 10 10 13 16 10 6 3 6 6 3 3 3 3 3 3 3 3 3 3 6 6 6 6 3 10 23 29 26 29 32 29 29 26 23 16 6 13 16
23 29 23 19 16 13 13 6 10 10 10 10 10 6 6 3 3 3 3 3 3 3 3 3 6 6 10 3 3 13 13 10 23 29 32 32 32 19 19 16 13 10 6
16 13 16 19 13 10 13 13 3 6 6 6 6 6 6 6 6 3 3 3 3 3 3 3 3 6 10 10 3 6 6 0 0 6 19 26 26 26 19 16 16 16 13
19 16 23 19 13 10 10 10 6 3 3 3 6 6 6 6 6 6 3 3 3 3 3 3 3 3 6 6 6 10 6 3 0 0 0 10 19 16 19 16 13 13 19
16 16 13 16 16 16 16 6 6 0 0 3 6 6 6 6 6 6 6 3 3 0 0 3 3 3 3 6 6 10 10 6 0 0 0 0 6 6 10 10 10 10 6
16 16 16 19 13 10 10 10 10 10 6 6 3 3 3 3 3 6 6 6 3 0 0 0 3 3 3 3 6 6 10 6 0 0 0 0 0 3 3 0 0 0 0
23 19 13 10 13 13 10 10 10 10 10 6 6 3 3 3 3 6 3 3 0 0 0 0 0 0 3 0 3 6 3 3 3 0 0 0 0 0 0 0 0 0 0
19 19 13 13 13 16 16 10 10 10 10 10 10 6 6 3 3 3 3 3 3 3 3 3 0 0 0 0 0 0 3 3 3 3 0 0 0 0 0 0 0 0 0
16 13 13 13 16 16 13 13 13 13 10 10 10 13 10 10 3 3 3 3 3 3 3 3 3 3 3 0 0 0 0 3 6 3 0 0 0 0 0 0 0 0 0
10 10 10 13 13 16 13 13 13 13 13 13 10 13 13 10 6 3 3 3 3 3 3 3 6 3 3 3 3 0 3 3 3 3 3 0 0 0 0 0 0 0 0
13 13 10 10 10 13 13 13 13 13 16 16 16 16 16 13 13 13 10 10 6 3 3 6 6 3 6 3 3 3 3 6 3 6 6 6 0 0 0 0 0 0 0
16 10 13 13 13 13 13 13 16 16 13 13 16 16 16 16 16 16 16 6 6 6 6 6 6 6 6 3 0 3 3 3 3 6 6 3 3 3 0 0 0 0 0
13 13 16 13 13 13 13 13 13 13 16 16 16 16 16 16 13 3 3 6 6 10 10 6 6 6 6 3 3 3 3 3 3 3 6 3 3 3 3 3 3 0 0
10 16 16 16 10 10 10 3 6 13 16 16 16 16 16 13 13 13 3 3 3 3 6 10 10 10 3 3 6 6 6 3 3 3 3 3 3 3 3 3 0 0 0
6 6 6 6 6 10 10 6 3 6 6 10 10 16 16 16 16 16 13 10 6 6 0 0 6 6 6 6 6 6 10 6 3 3 3 3 3 3 3 0 0 0 0
3 3 6 3 6 6 10 6 0 10 10 10 13 10 13 13 13 6 10 10 10 10 10 0 0 3 0 0 3 3 10 10 6 3 3 3 3 0 0 0 0 0 0
3 3 3 0 3 3 3 3 0 6 10 10 13 13 6 6 6 3 6 10 10 10 6 6 0 0 0 0 0 0 3 6 6 6 0 0 0 0 0 0 0 0 0

GEFSMA_con_cape1000_360.txt.gz
Probability
6 6 3 6 6 3 3 3 3 3 3 6 0 6 10 10 13 13 13 26 35 39 48 48 48 45 48 45 45 45 39 39 39 52 42 39 42 42 42 48 29 35 39
6 10 6 0 0 0 0 0 0 0 0 0 0 10 6 6 6 13 13 23 39 48 42 45 45 45 48 48 45 39 35 32 35 35 32 42 32 45 39 39 32 39 35
10 3 0 0 0 0 0 0 0 0 0 0 0 3 6 6 3 10 10 13 13 23 32 35 42 42 48 55 45 48 48 42 42 39 35 32 35 42 42 35 35 35 35
6 3 3 3 3 3 3 6 6 3 3 3 3 0 3 3 6 16 6 13 10 10 23 35 45 45 45 55 48 48 39 45 42 35 35 29 26 35 23 29 26 29 29
6 6 3 3 3 3 3 6 6 3 3 3 6 6 6 6 6 10 6 3 3 16 16 19 32 39 52 42 48 52 35 39 39 29 32 32 29 32 32 29 29 29 23
6 6 6 3 3 6 6 6 6 3 3 3 6 3 3 3 3 6 6 10 3 10 13 13 16 26 26 45 45 48 45 42 29 32 32 29 29 26 23 23 23 23 16
3 6 6 6 6 6 6 6 6 3 3 3 3 3 3 3 3 3 3 6 6 13 16 10 10 13 10 26 39 35 42 45 35 32 35 29 26 26 26 23 23 23 19
6 3 3 6 3 3 3 3 3 3 3 3 6 3 3 3 3 3 3 6 6 10 10 6 10 10 10 16 10 19 39 39 39 35 32 29 29 29 19 23 19 19 16
10 3 3 6 3 0 0 0 3 3 6 3 6 10 6 3 3 6 3 3 6 6 6 3 6 6 6 6 13 13 26 26 35 35 32 29 32 29 19 16 19 19 10
10 16 13 3 3 0 0 3 0 0 0 3 3 3 3 3 3 3 3 3 3 3 3 3 3 3 6 6 6 6 13 19 29 35 35 32 29 23 23 16 16 16 13
13 10 6 6 3 3 3 0 0 0 0 0 0 3 6 3 3 3 3 3 3 3 3 3 3 3 6 6 3 6 3 10 13 23 26 26 29 26 16 19 16 19 16
6 6 6 3 3 3 3 3 0 0 0 0 0 0 3 3 6 3 3 3 3 3 3 3 3 3 3 3 3 3 3 0 0 6 10 16 23 23 23 19 16 16 16
6 6 6 6 3 3 3 3 3 0 0 0 0 0 0 3 3 3 3 3 3 3 3 3 3 3 3 3 6 3 6 0 0 0 0 0 10 13 13 16 16 16 16
13 10 6 6 3 3 3 3 3 3 6 3 3 0 0 0 3 3 3 3 3 3 3 3 3 3 3 3 0 0 6 0 0 0 0 0 0 3 6 6 10 6 10
13 13 10 6 6 6 3 3 6 6 6 6 3 3 0 0 0 3 3 3 3 3 3 3 6 6 6 6 0 3 0 0 0 0 0 0 0 0 0 0 0 0 0
10 10 10 6 10 13 10 10 6 6 6 6 6 6 3 3 0 3 3 3 3 3 3 3 0 0 3 3 3 6 6 0 0 0 0 0 0 0 0 0 0 0 0
10 10 10 10 10 10 6 10 10 10 10 10 10 6 10 10 6 3 3 3 3 3 3 3 3 3 6 3 3 3 3 3 6 0 0 0 0 0 0 0 0 0 0
3 10 10 10 10 13 6 10 10 13 13 13 13 13 13 10 10 6 3 3 3 3 3 3 6 3 6 6 6 3 3 3 3 0 0 0 0 0 0 0 0 0 0
3 3 6 10 10 10 6 6 6 6 10 10 13 13 13 13 13 13 10 6 3 3 3 3 6 6 10 10 10 6 3 6 3 3 0 0 0 0 0 0 0 0 0
6 10 13 13 13 10 10 10 10 10 6 6 10 10 13 13 13 13 13 13 6 6 6 10 10 10 10 10 10 10 10 6 6 6 3 0 0 0 0 0 0 0 0
6 6 6 13 10 13 13 13 13 13 13 13 13 13 16 13 13 13 13 13 13 13 6 6 6 10 10 10 10 10 10 10 6 6 6 6 6 6 6 0 0 0 0
6 6 6 6 6 6 10 3 6 10 13 13 13 13 13 13 6 6 6 6 13 13 13 10 13 13 13 13 10 6 10 10 10 6 6 6 6 6 6 3 3 0 0
3 6 6 6 6 6 3 3 0 3 6 10 13 13 13 13 13 16 10 0 0 0 3 13 13 13 13 10 10 10 10 10 10 13 3 10 10 6 6 6 0 0 0
3 3 3 3 3 3 0 0 0 0 3 6 3 6 10 13 10 10 16 16 16 10 0 0 10 13 13 10 10 13 13 13 13 10 6 10 10 6 6 6 3 0 0
3 3 3 3 3 3 0 0 0 3 3 3 3 3 6 6 6 3 6 13 16 13 3 0 0 3 0 0 3 10 13 13 6 6 6 10 10 6 6 6 3 0 0
3 3 3 3 3 3 0 0 0 3 3 3 3 3 3 3 3 0 3 6 10 10 10 10 3 0 0 0 0 0 6 6 6 6 6 6 6 6 6 3 0 0 0

GEFSMA_con_cape1000_366.txt.gz
Probability
42 39 55 61 45 48 45 55 52 45 39 32 29 29 39 32 45 32 45 45 45 45 42 39 42 42 48 42 52 45 45 32 32 42 45 39 42 42 42 39 39 39 42
42 45 45 55 45 45 35 48 45 45 35 32 26 19 23 23 39 45 42 52 52 55 55 45 45 45 35 42 42 45 35 32 39 35 52 39 39 32 35 35 42 39 35
45 45 42 48 32 35 39 48 42 42 32 29 29 23 23 26 35 39 39 45 52 35 45 39 42 48 42 39 39 45 42 39 39 35 39 39 35 32 29 29 26 29 35
48 52 45 42 42 39 35 45 39 32 32 23 29 29 32 32 35 32 29 32 45 32 39 32 29 42 45 48 48 48 55 45 39 35 32 35 32 32 32 26 29 26 29
45 42 52 48 45 45 42 39 42 39 39 32 23 32 29 19 32 23 26 26 23 26 23 39 35 35 42 42 52 58 58 45 45 39 32 29 26 26 23 26 26 23 19
45 39 42 55 45 42 45 45 48 48 48 42 16 19 19 16 26 23 19 19 16 19 19 29 42 35 35 45 45 48 48 52 42 39 32 23 32 23 19 26 26 26 23
39 35 29 45 45 52 48 42 48 45 48 48 32 23 16 23 26 23 23 16 16 19 23 32 39 39 42 39 39 39 45 48 45 42 42 32 26 23 26 23 26 26 23
39 26 39 35 42 48 48 45 48 39 39 35 29 23 13 19 23 13 19 13 13 13 16 16 26 32 32 35 32 35 39 35 39 35 35 29 26 26 19 23 23 26 23
39 42 32 29 39 39 45 48 45 42 35 32 23 13 16 10 19 19 16 23 26 19 16 13 23 29 29 35 35 29 32 32 32 29 23 26 26 26 23 16 19 19 10
35 39 35 42 42 29 39 32 35 39 39 32 32 32 23 13 19 16 19 19 23 26 23 13 13 19 26 29 32 19 19 26 32 32 29 23 26 26 26 23 16 13 13
35 32 39 42 42 39 32 29 29 29 35 32 32 35 29 32 19 19 19 19 23 23 19 26 16 13 19 23 29 19 10 10 16 19 23 23 23 19 19 19 19 16 13
35 29 32 45 45 39 32 32 32 35 32 32 32 26 26 19 13 16 23 23 23 29 23 26 13 16 16 23 13 13 10 3 3 10 16 16 19 23 19 23 19 19 16
35 39 35 39 35 42 39 35 35 35 29 29 29 23 29 23 16 16 16 16 19 16 26 16 16 13 13 19 19 3 10 0 0 0 3 10 10 16 19 23 29 26 23
32 32 42 42 45 39 35 39 39 35 35 35 23 29 29 16 16 23 16 16 10 10 19 16 19 10 10 10 10 0 13 3 0 0 0 0 3 6 10 13 13 13 16
29 32 35 39 32 29 32 39 35 35 35 32 26 29 26 23 19 16 19 19 10 10 10 16 19 13 23 26 6 10 16 3 0 0 0 0 0 0 0 0 0 0 3
39 39 32 32 35 32 32 35 35 32 32 35 42 35 29 29 29 23 23 13 16 13 13 10 19 13 23 10 13 23 23 3 0 0 0 0 0 0 0 0 0 0 0
42 39 35 32 32 29 32 32 32 35 35 39 35 29 35 35 32 29 26 19 19 23 19 13 13 19 26 29 26 26 26 23 6 0 0 0 0 0 0 0 0 0 0
29 29 29 26 26 26 26 29 29 26 26 26 26 23 23 19 26 23 23 19 26 26 23 19 23 23 26 23 26 29 23 16 23 0 0 0 0 0 0 0 0 0 0
23 23 19 19 26 26 29 29 29 32 32 29 29 26 23 19 23 23 23 19 23 16 23 23 19 23 19 19 26 26 23 26 16 10 0 0 0 0 0 0 0 0 0
23 19 19 19 19 19 19 19 26 32 32 29 29 26 23 23 23 23 19 23 19 19 19 23 16 23 23 23 19 23 26 26 23 13 13 6 0 0 0 0 0 0 0
19 19 19 19 19 19 19 19 23 26 26 26 23 23 19 19 19 19 16 23 19 19 19 19 19 16 19 23 19 19 16 23 26 19 19 13 13 13 13 0 0 0 0
19 19 19 19 19 16 3 13 23 23 23 19 19 19 16 16 13 3 3 3 13 19 19 19 19 19 19 16 19 16 13 13 13 19 16 13 16 13 16 13 6 0 0
19 19 19 19 19 13 6 0 0 16 19 19 19 19 16 10 13 16 10 3 3 0 6 19 23 23 23 19 19 16 19 13 13 13 19 13 13 16 16 10 3 3 0
19 16 16 16 16 13 3 0 0 10 19 19 16 16 16 13 10 13 16 19 19 16 16 13 19 19 23 23 23 19 16 16 16 16 16 16 19 13 13 10 6 3 0
19 16 16 16 13 13 3 0 0 19 19 16 16 16 16 16 16 10 13 16 19 19 13 6 6 10 6 0 3 16 13 13 13 13 13 16 16 23 13 13 10 0 0
16 16 13 13 13 13 10 0 0 13 16 16 19 13 6 6 6 0 13 16 16 16 16 13 10 6 10 10 0 6 13 13 13 13 13 16 16 19 19 10 10 13 0

GEFSMA_con_cape1000_372.txt.gz
Probability
61 52 77 71 71 74 71 68 65 65 55 42 45 45 45 48 48 32 42 55 52 48 48 45 52 48 52 45 52 48 42 42 45 48 48 42 42 32 29 29 29 29 35
58 74 74 74 68 68 68 77 65 61 55 55 55 48 42 48 52 45 35 35 52 45 39 42 48 48 42 45 52 52 45 39 39 48 39 35 39 26 32 26 29 32 32
68 68 74 77 65 71 65 74 68 61 58 55 45 58 52 48 48 45 45 42 32 39 42 35 45 52 52 48 48 42 42 45 45 42 45 42 35 26 35 26 29 39 35
61 68 71 74 77 65 68 71 65 58 65 55 58 55 52 52 45 45 45 45 32 19 35 42 45 52 48 52 55 52 52 45 42 39 42 39 35 32 32 32 23 29 32
58 58 65 71 71 71 68 55 68 61 68 65 48 55 48 58 48 32 35 35 29 29 29 29 39 45 45 52 48 45 45 39 42 39 42 35 35 32 26 23 26 29 26
52 48 58 65 65 71 58 58 58 65 71 68 35 35 45 55 55 42 39 35 32 26 29 23 26 23 39 42 48 45 42 42 45 45 45 39 35 26 23 26 19 23 23
42 55 45 65 65 61 48 52 55 52 58 61 58 61 42 42 35 55 45 39 29 32 35 35 32 26 16 39 45 45 45 45 45 45 48 48 45 26 23 19 19 19 23
45 32 45 48 52 45 52 55 55 52 48 48 58 61 42 39 48 23 39 42 26 32 32 35 35 32 32 19 16 32 39 39 42 42 42 42 35 29 29 23 26 16 16
35 35 42 39 42 42 45 55 55 55 55 52 52 61 42 29 32 29 26 26 35 42 29 23 29 35 39 35 19 19 35 32 35 35 35 35 32 26 23 23 19 16 16
35 39 39 35 39 35 42 42 42 52 52 52 52 58 48 45 29 32 29 23 35 32 29 19 19 42 39 29 29 19 23 26 32 35 35 35 29 19 16 16 13 13 13
45 42 42 39 35 35 42 39 45 45 35 39 39 45 45 48 39 35 19 26 29 39 35 35 29 29 29 26 29 19 13 10 16 29 32 29 26 23 16 19 13 13 13
52 48 48 42 39 45 42 35 39 32 32 35 35 35 35 32 35 29 29 26 26 26 26 35 26 32 35 29 29 13 10 3 3 3 19 23 23 29 29 23 16 16 16
48 48 45 48 48 45 42 39 35 39 32 32 35 29 32 29 32 29 29 26 32 35 39 29 32 32 19 29 13 13 10 3 3 3 3 13 13 19 19 19 16 16 23
48 48 45 39 39 39 35 39 42 39 35 39 32 35 32 29 26 29 32 26 26 26 32 35 35 29 26 23 16 6 10 0 0 0 0 0 6 13 13 16 13 16 16
42 42 39 39 39 39 39 39 32 35 35 35 35 29 32 26 23 26 29 29 23 16 19 26 26 26 29 29 6 6 13 0 0 0 0 0 0 0 0 0 0 3 3
42 39 35 39 39 35 35 32 35 35 32 32 35 35 32 32 32 29 26 32 26 26 19 26 26 23 32 16 10 23 16 0 0 0 0 0 0 0 0 0 0 0 0
39 32 32 35 32 32 29 32 29 32 32 35 32 29 32 32 32 26 29 26 26 23 23 19 26 29 26 26 16 26 23 16 3 0 0 0 0 0 0 0 0 0 0
29 32 29 26 26 26 26 23 26 26 26 26 26 29 32 29 32 29 29 23 26 26 26 26 26 29 26 26 26 19 16 16 13 3 0 0 0 0 0 0 0 0 0
32 32 29 29 26 23 19 19 19 19 19 19 23 29 29 32 32 26 26 23 19 16 23 26 23 26 26 23 26 16 13 16 13 6 0 0 0 0 0 0 0 0 0
29 29 29 29 26 19 19 19 19 19 19 23 23 23 23 26 29 26 19 19 19 19 23 19 23 23 23 23 23 19 16 16 16 13 10 0 0 0 0 0 0 0 0
23 26 26 26 23 19 19 19 19 19 19 23 23 23 23 19 19 16 16 16 13 19 23 19 19 23 23 19 23 26 23 16 19 16 13 13 10 3 0 0 0 0 0
23 23 23 19 19 19 16 13 19 19 23 26 23 23 16 19 13 6 6 3 10 16 19 19 19 23 19 19 19 13 13 16 16 23 16 13 13 13 13 6 3 0 0
29 26 26 23 16 16 10 3 6 16 16 19 19 23 16 13 13 13 6 0 0 0 0 13 19 23 23 23 19 19 16 16 23 26 23 16 16 10 13 6 3 0 0
29 23 23 19 16 16 10 3 0 10 19 19 19 16 13 13 13 13 13 13 10 10 3 0 3 16 13 19 23 19 23 23 19 23 19 16 16 10 10 6 6 3 0
23 29 23 23 23 13 10 3 0 19 19 16 16 19 13 13 10 10 13 13 13 16 10 3 3 10 10 6 10 19 19 13 10 13 16 13 13 10 13 10 6 3 0
23 19 19 23 26 19 10 3 0 19 16 16 19 13 6 10 10 6 13 13 13 13 13 13 3 3 3 3 0 3 13 10 10 10 10 10 13 6 6 6 10 6 3

GEFSMA_con_cape1000_378.txt.gz
Probability
10 13 16 10 13 3 6 3 3 3 10 6 10 13 16 6 6 10 6 32 52 52 55 48 58 58 55 55 58 61 52 52 48 42 39 39 42 48 42 48 42 35 29
10 10 13 10 10 3 6 6 3 3 3 3 3 6 0 3 13 10 10 26 48 55 52 55 61 55 55 45 48 55 52 55 52 48 45 48 39 42 35 39 39 29 23
10 6 10 6 6 10 6 6 6 3 3 3 3 3 0 0 6 6 10 6 13 45 61 55 58 48 55 42 55 58 52 48 52 52 58 45 42 39 29 29 26 29 26
10 10 10 6 10 10 10 6 3 3 3 3 3 3 0 3 3 3 0 6 6 10 26 52 52 45 39 48 48 48 52 52 48 52 48 45 42 35 26 23 23 23 23
13 10 6 6 10 10 6 6 3 3 3 3 3 3 6 3 3 0 0 3 3 3 3 13 42 48 45 45 48 52 48 52 48 52 48 39 35 32 29 26 26 19 23
10 3 3 6 13 6 6 6 3 3 3 3 3 6 3 3 3 0 0 6 6 6 6 6 10 23 48 48 42 45 45 42 45 42 42 42 39 32 29 23 23 23 19
10 6 6 6 10 3 6 6 6 6 6 0 3 0 3 0 3 3 0 0 3 3 6 3 6 10 10 39 42 48 39 45 39 39 35 39 39 32 23 19 16 13 16
6 6 6 10 10 6 6 6 6 6 6 6 6 3 0 0 0 0 0 0 0 6 6 6 6 10 6 6 16 35 42 39 39 39 39 35 35 32 26 23 23 16 16
3 6 6 10 6 6 6 6 6 6 6 6 6 3 0 0 0 0 3 0 0 0 6 6 3 6 6 6 3 19 32 32 35 39 35 39 42 39 32 29 16 16 19
16 13 10 6 3 3 3 3 3 6 6 6 3 3 3 0 0 0 0 0 0 0 0 6 6 3 6 6 6 6 23 29 29 35 29 29 32 32 29 32 19 10 13
13 19 10 6 6 10 6 6 6 3 3 3 3 3 3 3 3 0 0 0 0 0 0 3 6 6 10 10 6 6 6 13 13 23 23 29 32 32 29 26 26 23 16
16 13 10 10 6 6 6 6 6 3 3 6 6 6 6 6 3 3 3 0 0 0 0 0 6 6 10 6 10 10 6 6 6 6 13 13 26 29 29 26 23 23 19
13 13 16 6 6 6 6 6 3 6 6 6 6 6 6 10 6 3 3 3 0 0 0 0 6 10 10 10 13 16 6 3 0 0 6 6 10 13 23 23 26 19 13
10 13 13 6 10 10 10 6 3 6 6 6 6 6 6 3 3 0 0 3 3 0 0 0 0 6 10 10 6 3 13 3 0 0 0 3 6 10 6 6 13 13 16
10 10 13 13 10 10 6 6 6 6 6 6 6 6 6 6 6 6 3 0 0 0 0 0 0 0 6 3 3 3 6 0 0 0 0 0 0 0 0 0 0 0 0
13 13 13 13 10 10 13 3 3 3 6 6 3 6 6 6 3 6 6 3 0 0 0 0 0 0 0 10 3 3 3 0 0 0 0 0 0 0 0 0 0 0 0
10 10 13 13 13 13 10 6 3 3 6 6 3 3 3 3 3 3 3 3 6 3 0 3 3 3 0 0 0 0 0 0 0 0 0 0 0 0 0 0 0 0 0
13 13 13 16 13 10 10 10 6 6 3 3 3 3 3 3 3 3 3 3 3 3 3 3 3 6 3 3 3 0 0 0 0 0 0 0 0 0 0 0 0 0 0
10 13 13 16 13 16 13 13 10 10 10 10 6 3 3 3 3 3 3 3 3 3 3 3 3 3 3 3 3 3 3 3 3 3 0 0 0 0 0 0 0 0 0
10 10 13 13 13 13 13 13 13 10 10 10 10 6 6 3 3 3 3 3 3 3 3 3 3 3 3 3 3 3 3 3 3 3 3 3 0 0 0 0 0 0 0
13 10 10 6 6 6 16 13 10 13 13 10 6 6 6 6 6 3 6 6 3 3 3 3 3 3 6 3 3 3 3 3 3 3 3 3 3 3 0 0 0 0 0
13 10 6 6 6 3 3 3 3 6 6 6 6 6 6 6 6 3 6 3 3 3 3 0 3 3 3 3 3 3 3 3 3 3 3 3 3 3 3 0 0 0 0
10 10 10 10 10 6 3 3 3 3 3 3 3 3 6 6 6 6 3 3 3 0 0 0 3 3 3 3 3 3 3 3 3 3 3 3 3 0 0 3 0 0 0
6 10 10 10 10 10 3 3 0 0 0 0 0 0 3 0 6 6 6 6 6 3 3 0 0 3 3 3 3 3 3 3 3 3 3 3 3 0 0 0 0 0 0
10 10 10 6 6 6 3 0 0 0 0 0 0 0 0 0 0 0 3 6 6 6 3 3 3 0 3 3 3 3 3 3 3 3 3 3 0 0 0 0 0 0 0
10 10 6 10 10 6 3 0 0 0 0 0 0 0 0 0 0 0 3 3 3 3 3 6 3 3 3 3 3 3 3 3 3 3 0 0 0 0 0 0 0 0 0